Location: Arthez
(43.0833°N, 0.2500°W)
Time: 23:36:53
(UTC+00:00)

Okean-O - Visible Passes

Search period start: 25 May 2022 00:00
Search period end: 04 June 2022 00:00
Orbit: 638 x 640 km, 98.1° (Epoch: 24 May)

Date Brightness Start Highest point End Pass type
(mag) Time Alt. Az. Time Alt. Az. Time Alt. Az.
25 May 3.6 19:58:43 10° S 20:03:00 49° W 20:07:19 10° NNW visible
26 May 4.5 20:22:24 10° SSW 20:26:13 28° W 20:30:04 10° NW visible
27 May 5.2 20:46:39 10° SW 20:49:31 17° W 20:52:23 10° NW visible
30 May 4.4 20:18:12 10° SSW 20:22:09 31° W 20:26:08 10° NNW visible
31 May 5.2 20:42:20 10° SW 20:45:25 19° W 20:48:32 10° NW visible
01 Jun 5.6 21:07:54 10° W 21:08:46 10° W 21:09:39 10° WNW visible
03 Jun 4.2 20:14:02 10° SSW 20:18:04 35° W 20:22:08 10° NNW visible
